[[[{"header":{"parameterUnit":"kt","parameterCategory":2,"dx":1,"dy":1,"la1":30.253999710083008,"la2":30.299108505249023,"lo1":-89.0895004272461,"lo2":-89.04439544677734,"nx":28,"ny":28,"refTime":"2022-09-29T21:00:00:Z","depth":0,"parameterNumber":1,"parameterNumberName":"U-component_of_WINDS"},"data":[-2.0746,-2.0816,-2.0832,-2.0918,-2.0946,-2.1007,-2.1034,-2.107,-2.1103,-2.1176,-2.1221,-2.1244,-2.1282,-2.1338,-2.1387,-2.1396,-2.1416,-2.1428,-2.1436,-2.1368,-2.1359,-2.1351,-2.1336,-2.1432,-2.1432,-2.1505,-2.1506,-2.1506,-2.0692,-2.0721,-2.0772,-2.0831,-2.0874,-2.0872,-2.0918,-2.0954,-2.1009,-2.105,-2.1095,-2.1161,-2.1215,-2.125,-2.1305,-2.1336,-2.1338,-2.135,-2.1348,-2.1354,-2.1281,-2.1265,-2.1347,-2.1347,-2.1347,-2.1347,-2.1347,-2.1347,-2.0596,-2.0637,-2.0683,-2.0739,-2.0773,-2.0813,-2.0854,-2.0882,-2.0931,-2.0991,-2.1,-2.1062,-2.1106,-2.118,-2.1208,-2.1256,-2.1246,-2.1264,-2.1269,-2.1273,-2.1275,-2.1166,-2.1266,-2.1266,-2.1266,-2.1266,-2.1265,0,-2.0532,-2.0542,-2.0593,-2.0647,-2.0689,-2.0733,-2.0776,-2.0802,-2.083,-2.087,-2.0928,-2.0964,-2.1035,-2.1091,-2.1146,-2.1173,-2.1175,-2.1177,-2.1189,-2.1186,-2.1175,-2.1181,-2.1061,-2.1174,-2.1173,-2.1173,-2.1172,-2.1172,-2.0437,-2.0483,-2.054,-2.0573,-2.0601,-2.0654,-2.0688,-2.071,-2.0746,-2.0802,-2.0837,-2.0893,-2.0941,-2.1031,-2.1062,-2.1115,-2.1117,-2.1158,-2.1125,-2.1119,-2.1118,-2.1115,-2.1119,-2.1165,-2.1165,-2.1166,-2.1167,0,-2.0381,-2.0409,-2.0486,-2.0538,-2.0553,-2.06,-2.0644,-2.0686,-2.0708,-2.0769,-2.0784,-2.082,-2.0877,-2.0902,-2.0973,-2.0984,-2.106,-2.106,-2.1045,-2.1046,-2.1085,-2.1081,-2.1209,-2.1227,-2.1128,-2.1129,-2.113,0,-2.0311,-2.0372,-2.0409,-2.0453,-2.052,-2.0542,-2.0607,-2.0634,-2.0673,-2.0721,-2.0728,-2.0773,-2.0799,-2.0847,-2.0864,-2.0931,-2.0944,-2.0957,-2.0961,-2.0957,-2.0955,-2.0977,-2.0972,-2.0968,-2.0968,-2.0967,-2.0967,0,-2.0223,-2.0314,-2.0385,-2.0411,-2.0473,-2.0505,-2.0532,-2.0577,-2.0611,-2.0659,-2.0682,-2.0736,-2.0766,-2.0807,-2.0829,-2.0806,-2.0912,-2.0885,-2.0925,-2.0925,-2.0949,-2.0947,-2.1053,-2.0966,-2.0966,-2.0965,-2.0965,0,-2.0171,-2.0221,-2.032,-2.0372,-2.0395,-2.0442,-2.0497,-2.0543,-2.059,-2.0605,-2.0643,-2.0651,-2.0712,-2.0683,-2.0767,-2.073,-2.0759,-2.0777,-2.0781,-2.0789,-2.0755,-2.0812,-2.091,-2.0921,-2.0794,-2.0792,-2.0791,0,-2.0062,-2.017,-2.019,-2.0284,-2.0337,-2.0342,-2.0394,-2.0436,-2.046,-2.0508,-2.0534,-2.0589,-2.0573,-2.0594,-2.0632,-2.0661,-2.0708,-2.0655,-2.0723,-2.0726,-2.0711,-2.0801,-2.081,-2.0885,-2.0773,-2.0775,-2.0776,0,-1.9981,-2.0058,-2.0074,-2.0103,-2.0164,-2.0209,-2.0269,-2.0329,-2.036,-2.0406,-2.0457,-2.0535,-2.0526,-2.0561,-2.0574,-2.0612,-2.0677,-2.0598,-2.0599,-2.0611,-2.0767,-2.0774,-2.0787,-2.0676,-2.0679,-2.068,-2.0762,0,-1.9897,-1.9955,-1.9998,-2.0065,-2.0105,-2.0165,-2.0195,-2.0232,-2.024,-2.0265,-2.034,-2.0382,-2.0444,-2.0465,-2.0474,-2.0554,-2.0545,-2.0536,-2.051,-2.0569,-2.0597,-2.0608,-2.0466,-2.0466,-2.0465,-2.0465,0,0,-1.9786,-1.9871,-1.9892,-1.9952,-1.9987,-1.9992,-2.0054,-2.0088,-2.0157,-2.0181,-2.0166,-2.0283,-2.0319,-2.0407,-2.0428,-2.0453,-2.047,-2.0449,-2.0541,-2.0549,-2.0557,-2.0586,-2.0597,-2.0464,-2.0464,-2.0464,-2.0463,0,-1.9762,-1.9799,-1.9861,-1.9897,-1.9952,-1.9975,-1.999,-2.0046,-2.0065,-2.0139,-2.0143,-2.0191,-2.0285,-2.0322,-2.0353,-2.0438,-2.0439,-2.0455,-2.0491,-2.0535,-2.0544,-2.0552,-2.0582,-2.0592,-2.0462,-2.0462,-2.0462,0,-1.9688,-1.9729,-1.9763,-1.9843,-1.9879,-1.9935,-1.9915,-1.9975,-2.0016,-2.002,-2.0094,-2.0122,-2.0174,-2.0254,-2.0291,-2.028,-2.0409,-2.0374,-2.0378,-2.0383,-2.0427,-2.0437,-2.0447,-2.0321,-2.032,-2.032,0,0,-1.9663,-1.9718,-1.977,-1.984,-1.9862,-1.9899,-1.9931,-1.9944,-1.9992,-2.0011,-2.0047,-2.0093,-2.0147,-2.0183,-2.0236,-2.032,-2.0332,-2.0355,-2.0362,-2.0367,-2.0375,-2.042,-2.0431,-2.0317,-2.0317,-2.0317,0,0,-1.9652,-1.9715,-1.9716,-1.9801,-1.9846,-1.9902,-1.9943,-1.9945,-1.9996,-1.9993,-2.0017,-2.0031,-2.0106,-2.0134,-2.0099,-2.0227,-2.0201,-2.021,-2.0207,-2.0216,-2.0222,-2.0215,-2.0086,0,0,0,0,0,-1.9643,-1.9707,-1.9707,-1.9726,-1.9828,-1.9901,-1.9914,-1.9936,-1.9917,-1.9949,-1.998,-1.9978,-2.012,-2.009,-2.0108,-2.0147,-2.0288,-2.0293,-2.0298,-2.0313,-2.0322,-2.033,0,0,0,0,0,0,-1.9651,-1.9674,-1.9706,-1.9764,-1.9787,-1.9899,-1.9872,-1.9879,-1.9914,-1.9913,-1.9972,-1.998,-2.0,-2.0082,-2.0098,-2.0135,-2.008,-2.029,-2.0294,-2.0298,-2.0316,-2.0324,-2.033,0,0,0,0,0,-1.9657,-1.9676,-1.9833,-1.9763,-1.9783,-1.9828,-1.987,-1.9876,-1.9903,-1.9952,-1.9959,-1.9917,-2.0001,-2.0016,-2.0092,-2.0127,-2.007,-2.0075,-2.0293,-2.0296,-2.0299,-2.032,0,0,0,0,0,0,-1.9662,-1.9682,-1.9838,-1.9845,-1.9741,-1.9822,-1.9835,-1.9873,-1.994,-1.9948,-1.9897,-1.9895,-2.0002,-2.0013,-2.0025,-2.0123,-2.0061,-2.0067,-2.007,-2.0295,-2.0298,-2.0301,0,0,0,0,0,0,-1.9672,-1.9687,-1.9841,-1.9812,-1.9816,-1.9816,-1.9828,-1.9896,-1.9941,-1.9881,-1.9882,-1.9895,-1.9984,-2.0012,-2.0021,-2.0126,-2.0054,-2.006,-2.0064,-2.0066,-2.0298,-2.03,0,0,0,0,0,0,-1.9679,-1.9692,-1.9811,-1.9814,-1.9817,-1.9896,-1.9877,-1.998,-1.9916,-1.9878,-1.9911,-1.9908,-1.9983,-1.9993,-2.0018,-2.012,-2.0124,-2.0054,-2.0058,-2.0061,-2.0063,0,0,0,0,0,0,0,-1.9684,-1.959,-1.9797,-1.9815,-1.9817,-1.9908,-1.991,-1.9912,-1.9915,-1.9913,-1.9911,-1.9909,-2.0021,-2.0028,-2.0034,-2.0114,0,0,-2.0054,-2.0056,0,0,0,0,0,0,0,0,-1.9584,-1.9588,-1.9797,-1.9799,-1.98,-1.9909,-1.991,-1.9912,-1.9915,-1.9913,-1.9912,-1.991,-2.0023,-2.0028,-2.0033,0,0,0,0,0,0,0,0,0,0,0,0,0,0,0,-1.9797,-1.9798,0,-1.9909,-1.991,-1.9911,-1.9915,-1.9914,-1.9912,-1.9911,-2.0024,-2.0029,-2.0033,0,0,0,0,0,0,0,0,0,0,0,0,0,0,0,0,0,0,0,0,0,0,0,0,0,0,0,0,0,0,0,0,0,0,0,0,0,0,0,0,0,0,0,0,0,0,0,0,0,0,0,0,0,0,0,0,0,0,0,0,0,0,0,0,0,0,0,0,0]}],[{"header":{"parameterUnit":"kt","parameterCategory":2,"dx":1,"dy":1,"la1":30.253999710083008,"la2":30.299108505249023,"lo1":-89.0895004272461,"lo2":-89.04439544677734,"nx":28,"ny":28,"refTime":"2022-09-29T21:00:00:Z","depth":0,"parameterNumber":2,"parameterNumberName":"V-component_of_WINDS"},"data":[-17.3829,-17.4017,-17.4021,-17.4235,-17.4272,-17.4417,-17.4469,-17.4535,-17.4586,-17.4755,-17.4851,-17.4867,-17.4914,-17.5025,-17.5125,-17.5128,-17.5171,-17.5239,-17.5231,-17.4931,-17.4889,-17.4849,-17.4806,-17.5249,-17.5249,-17.5541,-17.5544,-17.5546,-17.3615,-17.3656,-17.377,-17.3881,-17.3978,-17.3915,-17.3995,-17.4079,-17.4208,-17.4271,-17.4365,-17.4511,-17.4625,-17.4647,-17.4754,-17.4837,-17.481,-17.4866,-17.4859,-17.4867,-17.4547,-17.4502,-17.4887,-17.4887,-17.4886,-17.4886,-17.4886,-17.4886,-17.3227,-17.3339,-17.3407,-17.353,-17.3585,-17.3657,-17.3763,-17.3781,-17.3888,-17.4003,-17.3978,-17.4121,-17.418,-17.4305,-17.4344,-17.4454,-17.4389,-17.4448,-17.4463,-17.4478,-17.4496,-17.4078,-17.4471,-17.4469,-17.4468,-17.4467,-17.4467,0,-17.2942,-17.2936,-17.3043,-17.3153,-17.3241,-17.3323,-17.3398,-17.3462,-17.344,-17.3528,-17.3655,-17.3727,-17.3866,-17.3982,-17.4079,-17.4106,-17.4042,-17.4034,-17.4075,-17.409,-17.4093,-17.4094,-17.3573,-17.4022,-17.4018,-17.4015,-17.4013,-17.4012,-17.255,-17.268,-17.2748,-17.2824,-17.2864,-17.2985,-17.3055,-17.3026,-17.3101,-17.3184,-17.3282,-17.3398,-17.3489,-17.3687,-17.3697,-17.3799,-17.3768,-17.394,-17.3782,-17.3793,-17.3771,-17.3764,-17.3776,-17.3971,-17.3976,-17.398,-17.3984,0,-17.2329,-17.2328,-17.2527,-17.2579,-17.2596,-17.2732,-17.2774,-17.2881,-17.2883,-17.303,-17.3063,-17.3064,-17.3186,-17.3168,-17.3301,-17.3287,-17.3507,-17.3474,-17.3488,-17.348,-17.3633,-17.3619,-17.4131,-17.4196,-17.3737,-17.3741,-17.3745,0,-17.1993,-17.2162,-17.215,-17.2265,-17.2452,-17.2417,-17.2602,-17.2622,-17.2672,-17.2787,-17.2713,-17.2822,-17.2781,-17.2887,-17.2867,-17.3043,-17.3066,-17.3066,-17.3059,-17.3073,-17.3073,-17.3108,-17.3087,-17.3035,-17.3033,-17.3031,-17.3029,0,-17.1648,-17.1837,-17.2025,-17.2066,-17.2135,-17.2223,-17.2255,-17.2309,-17.2376,-17.246,-17.2503,-17.2601,-17.2655,-17.2731,-17.2705,-17.2598,-17.2918,-17.2766,-17.2917,-17.2919,-17.2987,-17.2983,-17.3443,-17.3025,-17.3025,-17.3024,-17.3023,0,-17.1374,-17.1465,-17.1736,-17.1792,-17.1842,-17.1963,-17.2061,-17.216,-17.2221,-17.2218,-17.2282,-17.2228,-17.2379,-17.223,-17.2437,-17.2307,-17.2364,-17.2376,-17.2387,-17.2397,-17.2231,-17.2492,-17.2932,-17.2977,-17.2411,-17.2406,-17.2401,0,-17.098,-17.1252,-17.1224,-17.148,-17.1603,-17.1513,-17.1647,-17.1703,-17.1709,-17.181,-17.1814,-17.1929,-17.1814,-17.1846,-17.1951,-17.1958,-17.2128,-17.1935,-17.2077,-17.2083,-17.2066,-17.2471,-17.2541,-17.2839,-17.2335,-17.2342,-17.2347,0,-17.0673,-17.0756,-17.0803,-17.085,-17.092,-17.102,-17.1173,-17.128,-17.135,-17.1419,-17.1545,-17.1703,-17.1623,-17.1677,-17.1641,-17.1752,-17.2012,-17.1649,-17.1649,-17.1716,-17.23,-17.2366,-17.2417,-17.1963,-17.1971,-17.1978,-17.2295,0,-17.0263,-17.0396,-17.0524,-17.0626,-17.07,-17.0858,-17.0841,-17.0921,-17.0881,-17.0882,-17.1065,-17.1101,-17.1204,-17.1254,-17.1214,-17.1473,-17.1426,-17.1337,-17.1188,-17.1454,-17.1558,-17.16,-17.1036,-17.1031,-17.1027,-17.1024,0,0,-16.9886,-17.0076,-17.0037,-17.0185,-17.0245,-17.0147,-17.0317,-17.0363,-17.0457,-17.0499,-17.0417,-17.0646,-17.0677,-17.09,-17.0981,-17.1022,-17.1066,-17.0972,-17.1328,-17.1362,-17.1393,-17.1505,-17.1549,-17.1017,-17.1016,-17.1015,-17.1013,0,-16.9732,-16.9774,-16.9944,-16.9991,-17.0059,-17.0052,-17.0093,-17.014,-17.0148,-17.0326,-17.0238,-17.0343,-17.0525,-17.0571,-17.0617,-17.0946,-17.0871,-17.0979,-17.1165,-17.129,-17.1329,-17.1364,-17.1481,-17.1524,-17.1004,-17.1005,-17.1005,0,-16.9427,-16.9465,-16.9544,-16.9677,-16.9719,-16.9844,-16.9686,-16.9824,-16.9916,-16.9793,-16.9971,-16.9987,-17.0044,-17.0257,-17.0351,-17.0278,-17.0695,-17.0557,-17.0581,-17.059,-17.071,-17.0757,-17.0799,-17.0248,-17.0245,-17.0243,0,0,-16.9295,-16.9418,-16.9445,-16.9642,-16.9675,-16.9665,-16.9728,-16.9695,-16.9751,-16.9774,-16.9792,-16.9847,-16.9952,-17.0021,-17.0118,-17.0354,-17.0362,-17.0465,-17.0501,-17.053,-17.0555,-17.0683,-17.073,-17.0233,-17.0233,-17.0233,0,0,-16.923,-16.9272,-16.9222,-16.9448,-16.9508,-16.9543,-16.9663,-16.9601,-16.9686,-16.9665,-16.9609,-16.9621,-16.9819,-16.9836,-16.9712,-17.0064,-16.9917,-16.9946,-17.0045,-17.009,-17.0125,-17.0115,-16.955,0,0,0,0,0,-16.9063,-16.9267,-16.9222,-16.9257,-16.942,-16.957,-16.959,-16.9551,-16.9449,-16.9545,-16.9551,-16.9465,-16.9759,-16.9647,-16.9681,-16.9818,-17.011,-17.0132,-17.0153,-17.0336,-17.0383,-17.0422,0,0,0,0,0,0,-16.9076,-16.9119,-16.9216,-16.9262,-16.9298,-16.9562,-16.9382,-16.9376,-16.9438,-16.942,-16.9467,-16.9467,-16.9433,-16.9627,-16.9658,-16.979,-16.9539,-17.0119,-17.0137,-17.0154,-17.0352,-17.039,-17.0423,0,0,0,0,0,-16.9086,-16.9121,-16.9393,-16.9258,-16.929,-16.9287,-16.9373,-16.9368,-16.9414,-16.9422,-16.9418,-16.9379,-16.9438,-16.9461,-16.9645,-16.9777,-16.9518,-16.9529,-17.0131,-17.0146,-17.0159,-17.0371,0,0,0,0,0,0,-16.9094,-16.9115,-16.9398,-16.9406,-16.9178,-16.9272,-16.9285,-16.9361,-16.9411,-16.941,-16.933,-16.9315,-16.9444,-16.946,-16.9478,-16.9775,-16.95,-16.9512,-16.9519,-17.0142,-17.0153,-17.0164,0,0,0,0,0,0,-16.9096,-16.9123,-16.9402,-16.9303,-16.9299,-16.9257,-16.927,-16.9418,-16.9412,-16.9315,-16.9305,-16.9323,-16.9415,-16.9461,-16.9475,-16.9709,-16.9487,-16.9498,-16.9506,-16.9511,-17.0151,-17.016,0,0,0,0,0,0,-16.9107,-16.9129,-16.9301,-16.9298,-16.9294,-16.938,-16.9387,-16.9555,-16.9333,-16.9315,-16.9311,-16.9301,-16.9419,-16.9431,-16.9473,-16.9702,-16.9707,-16.9487,-16.9495,-16.95,-16.9504,0,0,0,0,0,0,0,-16.9115,-16.8973,-16.9352,-16.9294,-16.929,-16.948,-16.9482,-16.9484,-16.933,-16.9322,-16.9313,-16.9305,-16.9423,-16.9435,-16.9447,-16.9697,0,0,-16.9486,-16.9492,0,0,0,0,0,0,0,0,-16.8962,-16.897,-16.9352,-16.9354,-16.9356,-16.948,-16.9482,-16.9484,-16.9329,-16.9322,-16.9315,-16.9309,-16.9426,-16.9436,-16.9446,0,0,0,0,0,0,0,0,0,0,0,0,0,0,0,-16.9352,-16.9354,0,-16.9481,-16.9482,-16.9483,-16.9328,-16.9322,-16.9317,-16.9311,-16.9429,-16.9437,-16.9445,0,0,0,0,0,0,0,0,0,0,0,0,0,0,0,0,0,0,0,0,0,0,0,0,0,0,0,0,0,0,0,0,0,0,0,0,0,0,0,0,0,0,0,0,0,0,0,0,0,0,0,0,0,0,0,0,0,0,0,0,0,0,0,0,0,0,0,0,0]}]]]